DW0268 Weather Reports


Display with metric or nautical units.
time (UTC)temp
F
wind
direction
speed
MPH
gust
MPH
rain 1hr
in
rain 24hr
in
rain mn
in
humidity
%
barometer
mb
20260831004553 87 209 1.0 2.0 0.00 0.00 0.00 63 1018.1
20260831003052 88 209 0.0 1.0 0.00 0.00 0.00 63 1018.0
20260831001550 90 209 1.0 2.0 0.00 0.00 0.00 61 1017.8
20260831000059 90 209 1.0 2.0 0.00 0.00 0.00 61 1017.7
20260830234558 91 209 2.0 3.0 0.00 0.00 0.00 61 1017.8
20260830233047 91 209 1.0 3.0 0.00 0.00 0.00 62 1017.9
20260830231548 91 209 2.0 5.0 0.00 0.00 0.00 61 1018.0
20260830230046 91 211 4.0 7.0 0.00 0.00 0.00 57 1017.9
20260830224550 91 211 4.0 7.0 0.00 0.00 0.00 57 1018.0
20260830223053 92 203 3.0 8.0 0.00 0.00 0.00 56 1018.1
20260830221558 92 209 4.0 8.0 0.00 0.00 0.00 55 1018.2
20260830220043 92 207 7.0 12.0 0.00 0.00 0.00 52 1018.1
20260830214540 92 217 6.0 12.0 0.00 0.00 0.00 51 1018.2
20260830213037 92 221 9.0 14.0 0.00 0.00 0.00 52 1018.2
20260830211536 92 219 10.0 14.0 0.00 0.00 0.00 51 1018.5
20260830210036 92 202 11.0 16.0 0.00 0.00 0.00 49 1018.8
20260830204541 92 205 9.0 16.0 0.00 0.00 0.00 48 1018.9
20260830203036 92 221 9.0 15.0 0.00 0.00 0.00 49 1019.1
20260830201529 92 210 10.0 17.0 0.00 0.00 0.00 47 1019.3
20260830200048 92 200 8.0 15.0 0.00 0.00 0.00 49 1019.3
20260830194526 92 185 8.0 17.0 0.00 0.00 0.00 49 1019.5
20260830193027 92 194 6.0 14.0 0.00 0.00 0.00 51 1019.6
20260830191522 92 214 12.0 17.0 0.00 0.00 0.00 47 1019.7
20260830190021 91 148 8.0 12.0 0.00 0.00 0.00 50 1019.9
20260830184522 91 199 11.0 16.0 0.00 0.00 0.00 48 1020.1
20260830183019 91 223 12.0 19.0 0.00 0.00 0.00 47 1020.1
20260830181517 90 219 8.0 18.0 0.00 0.00 0.00 51 1020.3
20260830180017 90 217 8.0 14.0 0.00 0.00 0.00 54 1020.3
20260830174513 90 215 9.0 15.0 0.00 0.00 0.00 53 1020.4
20260830173011 90 206 10.0 15.0 0.00 0.00 0.00 53 1020.6
20260830171511 89 218 9.0 16.0 0.00 0.00 0.00 53 1020.7
20260830170009 89 228 9.0 12.0 0.00 0.00 0.00 55 1020.8
20260830164520 88 199 7.0 12.0 0.00 0.00 0.00 54 1020.8
20260830163002 88 186 6.0 15.0 0.00 0.00 0.00 60 1021.0
20260830161609 87 206 8.0 12.0 0.00 0.00 0.00 63 1020.9
20260830160057 86 205 6.0 9.0 0.00 0.00 0.00 67 1020.9
20260830154559 85 175 5.0 9.0 0.00 0.00 0.00 68 1020.9
20260830153059 84 213 4.0 7.0 0.00 0.00 0.00 75 1020.8
20260830151547 82 178 3.0 6.0 0.00 0.00 0.00 79 1020.8
20260830150043 81 191 4.0 7.0 0.00 0.00 0.00 79 1020.8
20260830144538 80 182 5.0 8.0 0.00 0.00 0.00 81 1020.9
20260830143035 79 178 3.0 6.0 0.00 0.00 0.00 85 1020.8
20260830141533 77 218 5.0 7.0 0.00 0.00 0.00 87 1020.8
20260830140028 76 198 5.0 8.0 0.00 0.00 0.00 90 1020.8
20260830134527 74 180 2.0 3.0 0.00 0.00 0.00 92 1020.9
20260830133024 73 179 1.0 4.0 0.00 0.00 0.00 94 1021.1
20260830131532 71 180 0.0 0.0 0.00 0.00 0.00 94 1021.3
20260830130017 71 132 0.0 0.0 0.00 0.00 0.00 95 1021.2
20260830124515 70 131 0.0 0.0 0.00 0.00 0.00 96 1021.1
20260830123014 68 131 0.0 3.0 0.00 0.00 0.00 96 1020.9
20260830121514 67 130 1.0 4.0 0.00 0.00 0.00 95 1020.8
20260830120012 67 78 1.0 3.0 0.00 0.00 0.00 95 1020.8
20260830114513 67 47 0.0 1.0 0.00 0.00 0.00 95 1020.4
20260830113012 67 47 0.0 2.0 0.00 0.00 0.00 94 1020.4
20260830111507 67 47 0.0 1.0 0.00 0.00 0.00 94 1020.3
20260830104503 68 47 1.0 4.0 0.00 0.00 0.00 94 1020.0
20260830103002 68 40 1.0 4.0 0.00 0.00 0.00 94 1019.9
20260830101501 68 360 0.0 0.0 0.00 0.00 0.00 94 1019.8
20260830100121 68 360 0.0 0.0 0.00 0.00 0.00 94 1019.9
20260830094559 69 360 0.0 0.0 0.00 0.00 0.00 94 1019.7
20260830093102 69 360 0.0 0.0 0.00 0.00 0.00 94 1019.7
20260830091557 69 360 0.0 0.0 0.00 0.00 0.00 94 1019.8
20260830090056 69 318 0.0 0.0 0.00 0.00 0.00 94 1019.9
20260830084554 69 318 0.0 0.0 0.00 0.00 0.00 94 1019.9
20260830083056 69 317 0.0 0.0 0.00 0.00 0.00 94 1019.9
20260830081554 69 317 0.0 0.0 0.00 0.00 0.00 93 1019.9
20260830080053 70 317 0.0 0.0 0.00 0.00 0.00 93 1019.9
20260830074551 69 317 0.0 0.0 0.00 0.00 0.00 93 1020.2
20260830073053 69 317 1.0 4.0 0.00 0.00 0.00 92 1020.4
20260830071547 70 84 0.0 1.0 0.00 0.00 0.00 90 1020.3
20260830070046 71 84 0.0 2.0 0.00 0.00 0.00 90 1020.1
20260830064543 72 84 0.0 2.0 0.00 0.00 0.00 90 1020.5
20260830063040 72 84 0.0 2.0 0.00 0.00 0.00 91 1020.4
20260830061538 72 84 1.0 3.0 0.00 0.00 0.00 91 1020.4
20260830060037 72 84 1.0 2.0 0.00 0.00 0.00 90 1020.3
20260830054534 72 83 0.0 0.0 0.00 0.00 0.00 91 1020.3
20260830053034 72 83 0.0 0.0 0.00 0.00 0.00 90 1020.3
20260830051536 72 83 0.0 0.0 0.00 0.00 0.00 89 1020.1
20260830050028 72 83 0.0 1.0 0.00 0.00 0.00 89 1020.0
20260830044527 73 83 0.0 1.0 0.00 0.00 0.00 88 1020.0
20260830043027 74 83 0.0 2.0 0.00 0.00 0.00 86 1020.1
20260830041527 75 83 0.0 0.0 0.00 0.00 0.00 84 1019.9
20260830040027 75 83 1.0 4.0 0.00 0.00 0.00 85 1020.1
20260830034527 76 92 2.0 4.0 0.00 0.00 0.00 83 1019.9
20260830033025 76 93 0.0 0.0 0.00 0.00 0.00 81 1019.9
20260830031524 76 93 0.0 0.0 0.00 0.00 0.00 82 1020.1
20260830030025 76 93 0.0 1.0 0.00 0.00 0.00 82 1020.0
20260830024523 76 93 0.0 0.0 0.00 0.00 0.00 81 1020.0
20260830023023 77 93 0.0 0.0 0.00 0.00 0.00 83 1019.9
20260830021522 77 93 0.0 0.0 0.00 0.00 0.00 81 1019.8
20260830020027 78 93 0.0 0.0 0.00 0.00 0.00 80 1019.7
20260830014521 78 92 0.0 1.0 0.00 0.00 0.00 80 1019.4
20260830013021 79 93 1.0 3.0 0.00 0.00 0.00 80 1019.2
20260830011528 82 93 0.0 0.0 0.00 0.00 0.00 74 1019.1
20260830010020 83 93 0.0 0.0 0.00 0.00 0.00 70 1019.0